Regional Weather Roundup
Issued by NWS Mobile, AL

Home | Current Version | Previous Version | Text Only | Print | Product List | Glossary On
Versions: 1 2 3 4 5 6 7 8 9 10 11 12 13 14 15 16 17 18 19 20 21 22 23 24 25 26 27 28 29 30 31 32 33 34 35 36 37 38 39 40 41 42 43 44 45 46 47 48 49 50
000
ASUS44 KMOB 162010
RWRMOB
REGIONAL WEATHER ROUNDUP
NATIONAL WEATHER SERVICE MOBILE AL
300 PM CDT TUE SEP 16 2014

NOTE: "FAIR" INDICATES FEW OR NO CLOUDS BELOW 12,000 FEET WITH NO
      SIGNIFICANT WEATHER AND/OR OBSTRUCTIONS TO VISIBILITY.

  * THESE STATIONS ARE PART OF THE UNIVERSITY OF SOUTH ALABAMA
    MESONET AND ARE NOT UNDER NWS OR FAA QUALITY CONTROL.

ALZ061>064-162100-
COASTAL ALABAMA

CITY           SKY/WX    TMP DP  RH WIND       PRES   REMARKS
MOBILE REG APT MOSUNNY   86  75  69 SW5       29.99F HX  95
BROOKLEY FIELD PTSUNNY   87  76  69 VRB5      29.98F HX  97
USA CAMPUS*      N/A     88  75  66 CALM      29.94F HX  97
DOG RIVER*       N/A     84  75  74 SW8       29.98F


CITY           SKY/WX    TMP DP  RH WIND       PRES   REMARKS
MOUNT VERNON*    N/A     90  75  62 CALM      29.96F HX 100
SARALAND*      NOT AVBL
BAY MINETTE*   NOT AVBL
LOXLEY*          N/A    N/A N/A N/A S18       29.99S
ROBERTSDALE*     N/A    N/A N/A N/A S13       29.99S
FAIRHOPE*        N/A     77  73  88 SE10      29.99R
ELBERTA*         N/A     73  59  60 SE7       30.01F
FOLEY*         NOT AVBL
GRAND BAY*       N/A     79  75  89 S3        29.97F
DAUPHIN ISLND* NOT AVBL
BON SCOUR NWR* NOT AVBL
GULF SHORES    TSTM      74  72  93 NW13G20   30.03R VSB 3/4

$$

ALZ051>060-162100-
INTERIOR SOUTHWEST AND SOUTH CENTRAL ALABAMA

CITY           SKY/WX    TMP DP  RH WIND       PRES   REMARKS
GREENVILLE     SUNNY     91  69  48 N7        29.98F HX  96
EVERGREEN      MOSUNNY   88  70  55 NE3       29.97F
CASTLEBERRY*   NOT AVBL
ATMORE*          N/A     90  72  55 N8        29.98F HX  96
DIXIE*         NOT AVBL
ANDALUSIA/OPP  MOSUNNY   95  71  45 N6        29.96F HX 102
ANDALUSIA*     NOT AVBL
FLORALA APT    PTSUNNY   85  72  65 SW15      29.98F THUNDER
FLORALA*         N/A     82  73  74 SW6       29.94F

$$

FLZ001>006-162100-
WESTERN FLORIDA PANHANDLE

CITY           SKY/WX    TMP DP  RH WIND       PRES   REMARKS
PENSACOLA      LGT RAIN  75  75 100 SW7       29.99F
NAS PENSACOLA  TSTM      76  76 100 CALM      29.98F FOG
MILTON         LGT RAIN  76  74  93 S13       29.99F
WHTNG S FIELD  TSTM      76  74  93 SW8       29.99F FOG


CITY           SKY/WX    TMP DP  RH WIND       PRES   REMARKS
WALNUT HILL*   NOT AVBL
JAY*           NOT AVBL
DUKE FIELD     LGT RAIN  74  74 100 SW3       29.99F
CRESTVIEW      PTSUNNY   76  32  20 S5        30.00F
VALPARAISO     LGT RAIN  76  75  96 W3        29.98F
DESTIN         LGT RAIN  79  76  90 VRB3      29.98F

$$

MSZ076-079-162100-
INTERIOR SOUTHEAST MISSISSIPPI

CITY           SKY/WX    TMP DP  RH WIND       PRES   REMARKS
LEAKESVILLE*   NOT AVBL
AGRICOLA*      NOT AVBL

$$

MARINE OBSERVATIONS

STATION/POSITION TIME  TEMP    WIND        PRES    WAVE
                       AIR SEA DIR/SP/G            HT/PER
                 (UTC) (F)     (DEG/KT/KT) (MB)    (FT/S)
PASCAGOULA       2000   84     200/  6/ 10 1015.0F
PETIT BOIS ISLND 2000   83     230/  7/ 10 1015.5F
GRAND BAY        1900   82     180/  7     1017.0F
KATRINA CUT      1900   84     210/  7     1016.3F
CEDAR POINT      1900   83     220/  8     1015.2F
E DAUPHIN ISLAND 1855   85     200/  7/ 11 1015.4F
MIDDLE BAY LIGHT 1900   85     240/  5     1014.6F
USCG MOBILE BAY  2000   89 87   60/  2/  4 1013.8R
STATE DOCKS      2000   93 88              1014.5S
MEAHER PARK      1900   88      60/  2     1013.9F
WEEKS BAY        1900   87                   N/A
12 S ORANGE BCH  2000   79 86  230/ 10/ 12 1015.7F   3/ 6
PENSACOLA BAY    2000   79 86  220/  6/  9 1015.6F
64 S DAUPHIN ISL 1946   80 85  240/ 12/ 14 1016.6F   2/ 7
67 S FORT MORGAN 1900   75     VRB 10      1016.6F

$$

SELECTED LOCATIONS ACROSS THE REGION

CITY           SKY/WX    TMP DP  RH WIND       PRES   REMARKS
NEW ORLEANS    PTSUNNY   85  76  74 S16       29.99F
GULFPORT       LGT RAIN  77  75  93 SW7       29.98F FOG
PASCAGOULA AP  MOSUNNY   81  77  88 VRB3      29.98F
PASCAGOULA*      N/A     84  75  74 SW7       29.97F
HATTIESBURG    LGT RAIN  82  72  71 N3        29.99F
LAUREL         PTSUNNY  N/A N/A N/A SW3       30.01F
MERIDIAN       PTSUNNY   88  68  51 N9        30.01F
JACKSON        PTSUNNY   87  63  44 N7        30.03F
MONTGOMERY     CLOUDY    90  70  51 N10       29.98F HX  95
TROY           MOSUNNY   89  70  53 N12       29.98F
KINSTON*       NOT AVBL
GENEVA*          N/A     75  70  83 S9        30.00S
ASHFORD*       NOT AVBL
DOTHAN         LGT RAIN  77  73  87 N7        30.02R
PANAMA CITY    CLOUDY    81  74  79 S9        29.97F

$$



USA.gov is the U.S. government's official web portal to all federal, state and local government web resources and services.